Starlink 31407

operational
NORAD ID: 59250 Int'l Des: 2024-049 Owner: SPXS Country: US Constellation: starlink
LEOCIRCULAR

Starlink 31407について

説明を読み込み中...

リアルタイム位置

3D地球を読み込み中...

次回通過

高度履歴

Altitude vs Time

uPlot chart will show altitude changes over time

軌道要素

1 59250U 24049V 25302.64065240 .00000612 00000-0 31755-4 0 9993
2 59250 43.0040 152.3993 0001841 262.2977 97.7666 15.27581766 92487
Epoch: Oct 29, 2025 • Age: 24 hours

現在のステータス

高度 487.1 km
速度 7.62 km/s
衛星直下点 -20.95°S, 73.98°E
打ち上げ日 Mar 16, 2024
運用期間 1.6 years
タイプ internet

技術仕様

分類 Payload
質量 730.00 kg
乾燥質量 700.00 kg
総質量 730.00 kg
長さ 0.30 m
直径 4.10 m
スパン 29.00 m
形状 Box + pan
製造者 SPXS
バスタイプ Starlink V2M
フェーズステータス In Orbit
所有者/国 SPXS/US

大規模コンステレーション

Loading constellations...